Location: Unspecified
(0.0000°N, 0.0000°E)
Time: 06:18:31
(UTC+00:00)

Vanguard 2 Rocket - Pass Details

Date: 07 October 2023
Orbit: 552 x 3312 km, 32.9° (Epoch: 06 December)

Event Time Altitude Azimuth Distance (km) Brightness Sun altitude
Rises 18:14:48 0° 287° (WNW) 6,990 12.9 -6.7°
Reaches altitude 10° 18:20:32 10° 280° (W) 5,658 12.4 -8.1°
Maximum altitude 18:34:21 36° 221° (SW) 2,936 9.9 -11.6°
Drops below altitude 10° 18:43:05 10° 157° (SSE) 3,557 9.7 -13.7°
Sets 18:45:50 0° 147° (SSE) 4,209 10.0 -14.4°
